FENGYUN 1C DEB

Satellite information

Favourite Embed

Satellite Type and Status

DEBRISIN ORBIT

Key statistics

Satellite FENGYUN 1C DEB at a glance.

Uptime

9496

Days in orbit

Revolutions

≈ 14.1

Per day

Orbit

SSO

Sun Synchronous Orbit

Inclination

98.7

Latest

Satellite identification and parameters

Extended collection of information and parameters for FENGYUN 1C DEB.

Object identification

Identified? True

Debris? True

Object name: FENGYUN 1C DEB

International designator: 1999-025QH

Object number (NORAD): 30080

Object ID (CCSDS): 30080

Country: PEOPLES REPUBLIC OF CHINA (PRC)

Current information (Y/N): Y

RCS size: SMALL

Orbital parameters

Period: 102.083 minutes

Inclination: 98.6771 deg

SMA: 7235.412 km

Apoapsis: 952.987 km

Periapsis: 761.566 km

RAAN: 116.5009 deg

Eccentricy: 0.0132281

Argument of periapsis: 319.696 deg

Mean anomaly: 158.6265 deg

Mean motion: 14.10613054 rev/day

Mean motion (dot): 0.0000054 rev/day2

B* drag term: 0.00030148 1/REarth

Two-line elements (TLE)

Creation date: May 9, 2025, 2:46 a.m.

Reference frame: TEME

Reference center: EARTH

Epoch: May 8, 2025, 7:27 p.m. UTC

TLE line 0: 0 FENGYUN 1C DEB

TLE line 1: 1 30080U 99025QH 25128.81047663 .00000540 00000-0 30148-3 0 9997

TLE line 2: 2 30080 98.6771 116.5009 0132281 319.6960 158.6265 14.10613054941657

Live tracking on map

Real-time ground track for satellite FENGYUN 1C DEB.

In-orbit conjunctions

A list of the most updated potential collisions computed for object FENGYUN 1C DEB.

Target Orbit TCA Probability of collision Miss distance Type
COSMOS 1275 DEB LEO 2025-03-11 20:12:00 0.0001288623 112.0 (m) DEBRIS
METEOR 2-6 LEO 2025-02-23 12:01:29 0.0001585595 115.0 (m) PAYLOAD
SL-16 DEB LEO 2025-02-03 10:23:50 0.0001524903 261.0 (m) DEBRIS
SPOT 5 SSO 2025-01-03 06:45:57 0.0002393269 413.0 (m) PAYLOAD
COSMOS 1275 DEB LEO 2024-08-04 19:12:31 0.0001641088 261.0 (m) DEBRIS

Associated space launch

Chinese polar orbiting meteorological satellite

FENGYUN 1C DEB was lifted into orbit during the mission ‘Long March 4B | Feng Yun 1C’, on board a Long March 4B space rocket.

The launch took place on May 10, 1999, 1:33 a.m. from Launch Complex 7.

For more information about the launch, click the button.

Launch to space Long March 4B | Feng Yun 1C
Long March 4B | Feng Yun 1C

Agency: N/A

Status: Launch Successful

Launch date: May 10, 1999, 1:33 a.m. UTC

Rocket: Long March 4B

Launch pad: Launch Complex 7

Location: Taiyuan Satellite Launch Center, People's Republic of China

...

Latest news about this satellite

There are no fresh news available about this satellite. Check back as we update our databases every day.


Newsletter sign-up

Weekly statistics, charts and insights to help you stay on top of the space industry.